TJS-17 AKM, 63629

Orbit data source: Space-Track

TJS-17 AKM, 63629 is space debris in GEO originally from a launch on Thu, 10 Apr 2025 UTC launched from the Xichang Space Center, China (XSC). Debris objects in space refer to the collection of defunct objects orbiting the Earth. Examples of debris include non-operational satellites, rocket bodies, and fragments generated from explosions, collisions, or faulty payload assembly.

Not visible in the next 10 days
Identifier
63629, 2025-073C
Orbit
GEO
Country
Flag of CNCN / PRC
Related business
Manufacturer
CAST
Mission
Spacecraft
Bus & Motor
Unknown
Mass
~500 kg wet, ~500 kg dry
Launch date (UTC)
2025-04-10 (5 months ago)
Launch vehicle
Unknown
Launch site
Xichang Space Center, China (XSC)
Object type
Payload
Rocket body
Debris
Shape & HBR
Box, 0.5 m
Radar Cross Section
1.500 m²

Expand to show TLE details & history
Last TLE update: 1 month ago

TLE from 1 month ago
0 TJS-17 AKM
1 63629U 25073C   25231.43593609  .00000043  00000-0  00000+0 0  9991
2 63629   0.2919  82.5911 0011777  84.5411 192.8835  0.98859481  1268
Epoch: 2025-08-19T10:27Z
TLE epoch observation values (Epoch: 2025-08-19T10:27:44.878Z)
Latitude
-0.31151°
Longitude
-124.96506°
Altitude
36,235.717 km
Speed
3.057 km/s
True Right ascension
00h 00m 00s
True Declination
0° 18' 40"
Sunlit
Object was in daylight at epoch
Visualization orbit readout
Latitude
Unknown
Longitude
Unknown
Altitude
Unknown
Speed
Unknown
Apparent Right ascension
Unknown
Apparent Declination
Unknown
Sunlit
N/A
Visualization observer readout
Local Sidereal Time
12:21:57
Azimuth
Unknown
Elevation
Unknown
Doppler factor
Unknown
Orbital elements
Apogee altitude
36,238.412 km
Perigee altitude
36,138.151 km
Semi-major axis
42,566.419 km
Eccentricity
0.00118
Inclination
0.2919°
RAAN
82.5911°
Arg. of periapsis
84.5411°
True anomaly
192.85345°
Mean anomaly
192.8835°
Eccentric anomaly
192.86847°
Mean motion
0.24714 °/min
Orbital period
1,456.67 mins
BSTAR
0
Loading maneuver chart data...
Computing Atmospheric mass density...
Loading historical data...
Loading historical data...
Loading historical data...
Loading historical data...
Loading historical data...
Loading historical data...
Loading historical data...
Other satellites on launch #73 in the year 2025 (2025-04-10 UTC)

Documentation

Showing up to 5 results
|